Time,TemperatureF,DewpointF,PressureIn,WindDirection,WindDirectionDegrees,WindSpeedMPH,WindSpeedGustMPH,Humidity,HourlyPrecipIn,Conditions,Clouds,dailyrainin,SoftwareType,DateUTC
2013-02-06 00:02:00,70.0,63.0,30.02,SE,142,0.0,0.0,78,0.00,,,0.00,,2013-02-06 05:02:00,
2013-02-06 00:12:00,70.0,63.0,30.02,SE,142,0.0,0.0,78,0.00,,,0.00,,2013-02-06 05:12:00,
2013-02-06 00:22:00,70.0,64.0,30.02,SE,142,0.0,0.0,80,0.00,,,0.00,,2013-02-06 05:22:00,
2013-02-06 00:32:00,69.0,63.0,30.02,SE,142,0.0,0.0,82,0.00,,,0.00,,2013-02-06 05:32:00,
2013-02-06 00:41:00,69.0,63.0,30.02,SE,142,0.0,0.0,82,0.00,,,0.00,,2013-02-06 05:41:00,
2013-02-06 00:53:00,69.0,64.0,30.02,SE,142,0.0,0.0,83,0.00,,,0.00,,2013-02-06 05:53:00,
2013-02-06 01:01:00,69.0,64.0,30.02,SE,142,0.0,0.0,83,0.00,,,0.00,,2013-02-06 06:01:00,
2013-02-06 01:11:00,69.0,64.0,30.02,SE,142,0.0,0.0,83,0.00,,,0.00,,2013-02-06 06:11:00,
2013-02-06 01:22:00,68.0,63.0,30.02,SE,142,0.0,0.0,84,0.00,,,0.00,,2013-02-06 06:22:00,
2013-02-06 01:32:00,68.0,63.0,30.02,SE,142,0.0,0.0,84,0.00,,,0.00,,2013-02-06 06:32:00,
2013-02-06 01:42:00,68.0,63.0,30.02,SE,142,0.0,0.0,84,0.00,,,0.00,,2013-02-06 06:42:00,
2013-02-06 01:52:00,68.0,63.0,30.02,SE,142,0.0,0.0,84,0.00,,,0.00,,2013-02-06 06:52:00,
2013-02-06 02:01:00,68.0,63.0,30.01,SE,142,0.0,0.0,84,0.00,,,0.00,,2013-02-06 07:01:00,
2013-02-06 02:11:00,68.0,63.0,30.01,SE,142,0.0,0.0,84,0.00,,,0.00,,2013-02-06 07:11:00,
2013-02-06 02:22:00,68.0,63.0,30.01,SE,142,0.0,0.0,84,0.00,,,0.00,,2013-02-06 07:22:00,
2013-02-06 02:32:00,67.0,62.0,30.01,SE,142,0.0,0.0,85,0.00,,,0.00,,2013-02-06 07:32:00,
2013-02-06 02:42:00,67.0,62.0,30.01,SE,142,0.0,0.0,85,0.00,,,0.00,,2013-02-06 07:42:00,
2013-02-06 02:52:00,67.0,62.0,30.01,NNW,346,1.0,5.0,85,0.00,,,0.00,,2013-02-06 07:52:00,
2013-02-06 03:01:00,66.0,62.0,30.01,NNW,346,1.0,4.0,86,0.00,,,0.00,,2013-02-06 08:01:00,
2013-02-06 03:11:00,66.0,62.0,30.01,NNW,346,1.0,4.0,86,0.00,,,0.00,,2013-02-06 08:11:00,
2013-02-06 03:21:00,66.0,62.0,30.01,NNW,346,1.0,4.0,87,0.00,,,0.00,,2013-02-06 08:21:00,
2013-02-06 03:31:00,66.0,62.0,30.01,North,349,0.0,4.0,87,0.00,,,0.00,,2013-02-06 08:31:00,
2013-02-06 03:42:00,66.0,62.0,30.01,North,349,0.0,4.0,87,0.00,,,0.00,,2013-02-06 08:42:00,
2013-02-06 03:53:00,65.0,61.0,30.01,North,349,0.0,2.0,88,0.00,,,0.00,,2013-02-06 08:53:00,
2013-02-06 04:01:00,65.0,61.0,30.01,North,349,0.0,1.0,88,0.00,,,0.00,,2013-02-06 09:01:00,
2013-02-06 04:11:00,65.0,61.0,30.01,North,349,0.0,1.0,88,0.00,,,0.00,,2013-02-06 09:11:00,
2013-02-06 04:21:00,65.0,61.0,30.00,North,349,0.0,0.0,88,0.00,,,0.00,,2013-02-06 09:21:00,
2013-02-06 04:32:00,65.0,61.0,30.00,North,349,0.0,0.0,88,0.00,,,0.00,,2013-02-06 09:32:00,
2013-02-06 04:42:00,65.0,61.0,30.00,North,349,0.0,0.0,88,0.00,,,0.00,,2013-02-06 09:42:00,
2013-02-06 04:52:00,65.0,62.0,30.01,North,349,0.0,0.0,89,0.00,,,0.00,,2013-02-06 09:52:00,
2013-02-06 05:01:00,65.0,62.0,30.01,North,349,0.0,0.0,89,0.00,,,0.00,,2013-02-06 10:01:00,
2013-02-06 05:11:00,65.0,62.0,30.01,North,349,0.0,0.0,89,0.00,,,0.00,,2013-02-06 10:11:00,
2013-02-06 05:21:00,65.0,62.0,30.01,North,349,0.0,0.0,89,0.00,,,0.00,,2013-02-06 10:21:00,
2013-02-06 05:31:00,65.0,62.0,30.01,North,349,0.0,0.0,89,0.00,,,0.00,,2013-02-06 10:31:00,
2013-02-06 05:42:00,65.0,62.0,30.01,North,349,0.0,0.0,89,0.00,,,0.00,,2013-02-06 10:42:00,
2013-02-06 05:52:00,65.0,62.0,30.02,North,349,0.0,1.0,89,0.00,,,0.00,,2013-02-06 10:52:00,
2013-02-06 06:01:00,65.0,62.0,30.02,North,349,0.0,0.0,90,0.00,,,0.00,,2013-02-06 11:01:00,
2013-02-06 06:11:00,65.0,62.0,30.02,North,349,0.0,0.0,90,0.00,,,0.00,,2013-02-06 11:11:00,
2013-02-06 06:22:00,64.0,61.0,30.03,North,349,0.0,3.0,90,0.00,,,0.00,,2013-02-06 11:22:00,
2013-02-06 06:32:00,64.0,61.0,30.04,North,349,0.0,1.0,90,0.00,,,0.00,,2013-02-06 11:32:00,
2013-02-06 06:42:00,64.0,61.0,30.04,North,349,0.0,1.0,90,0.00,,,0.00,,2013-02-06 11:42:00,
2013-02-06 06:53:00,64.0,61.0,30.04,North,349,0.0,0.0,90,0.00,,,0.00,,2013-02-06 11:53:00,
2013-02-06 07:02:00,64.0,61.0,30.05,North,349,0.0,0.0,90,0.00,,,0.00,,2013-02-06 12:02:00,
2013-02-06 07:12:00,64.0,61.0,30.05,North,349,0.0,0.0,90,0.00,,,0.00,,2013-02-06 12:12:00,
2013-02-06 07:22:00,64.0,61.0,30.05,North,349,0.0,0.0,90,0.00,,,0.00,,2013-02-06 12:22:00,
2013-02-06 07:32:00,64.0,61.0,30.06,North,349,0.0,1.0,90,0.00,,,0.00,,2013-02-06 12:32:00,
2013-02-06 07:42:00,64.0,61.0,30.06,North,349,0.0,1.0,90,0.00,,,0.00,,2013-02-06 12:42:00,
2013-02-06 07:52:00,63.0,60.0,30.06,North,349,0.0,1.0,90,0.00,,,0.00,,2013-02-06 12:52:00,
2013-02-06 08:01:00,63.0,60.0,30.06,North,349,0.0,1.0,90,0.00,,,0.00,,2013-02-06 13:01:00,
2013-02-06 08:12:00,63.0,60.0,30.06,North,349,0.0,1.0,90,0.00,,,0.00,,2013-02-06 13:12:00,
2013-02-06 08:22:00,64.0,60.0,30.07,North,349,0.0,3.0,88,0.00,,,0.00,,2013-02-06 13:22:00,
2013-02-06 08:32:00,65.0,60.0,30.07,North,349,1.0,5.0,83,0.00,,,0.00,,2013-02-06 13:32:00,
2013-02-06 08:42:00,65.0,60.0,30.07,North,349,1.0,5.0,83,0.00,,,0.00,,2013-02-06 13:42:00,
2013-02-06 08:52:00,67.0,61.0,30.07,North,349,2.0,5.0,81,0.00,,,0.00,,2013-02-06 13:52:00,
2013-02-06 09:02:00,68.0,62.0,30.07,NNW,348,0.0,3.0,81,0.00,,,0.00,,2013-02-06 14:02:00,
2013-02-06 09:11:00,69.0,63.0,30.07,NNW,348,0.0,1.0,80,0.00,,,0.00,,2013-02-06 14:11:00,
2013-02-06 09:22:00,69.0,63.0,30.07,NNW,348,0.0,1.0,80,0.00,,,0.00,,2013-02-06 14:22:00,
2013-02-06 09:32:00,70.0,63.0,30.09,NNW,348,1.0,4.0,79,0.00,,,0.00,,2013-02-06 14:32:00,
2013-02-06 09:42:00,71.0,64.0,30.09,NNW,348,0.0,3.0,79,0.00,,,0.00,,2013-02-06 14:42:00,
2013-02-06 09:52:00,71.0,64.0,30.09,NNW,348,0.0,3.0,79,0.00,,,0.00,,2013-02-06 14:52:00,
2013-02-06 10:02:00,72.0,65.0,30.08,NNW,348,0.0,1.0,78,0.00,,,0.00,,2013-02-06 15:02:00,
2013-02-06 10:11:00,73.0,65.0,30.08,East,97,0.0,3.0,76,0.00,,,0.00,,2013-02-06 15:11:00,
2013-02-06 10:21:00,73.0,65.0,30.08,East,97,0.0,3.0,76,0.00,,,0.00,,2013-02-06 15:21:00,
2013-02-06 10:32:00,74.0,66.0,30.08,ESE,118,0.0,4.0,76,0.00,,,0.00,,2013-02-06 15:32:00,
2013-02-06 10:42:00,74.0,66.0,30.08,ESE,107,0.0,5.0,75,0.00,,,0.00,,2013-02-06 15:42:00,
2013-02-06 10:52:00,74.0,66.0,30.08,ESE,107,0.0,5.0,75,0.00,,,0.00,,2013-02-06 15:52:00,
2013-02-06 11:01:00,74.0,66.0,30.08,ENE,76,0.0,3.0,75,0.00,,,0.00,,2013-02-06 16:01:00,
2013-02-06 11:11:00,74.0,66.0,30.08,ENE,76,0.0,3.0,75,0.00,,,0.00,,2013-02-06 16:11:00,
2013-02-06 11:21:00,75.0,66.0,30.08,SE,130,0.0,6.0,74,0.00,,,0.00,,2013-02-06 16:21:00,
2013-02-06 11:32:00,76.0,66.0,30.08,SE,136,3.0,6.0,71,0.00,,,0.00,,2013-02-06 16:32:00,
2013-02-06 11:42:00,76.0,66.0,30.08,SE,136,3.0,6.0,71,0.00,,,0.00,,2013-02-06 16:42:00,
2013-02-06 11:52:00,76.0,66.0,30.08,South,173,3.0,8.0,71,0.00,,,0.00,,2013-02-06 16:52:00,
2013-02-06 12:02:00,76.0,65.0,30.08,SE,144,1.0,7.0,70,0.00,,,0.00,,2013-02-06 17:02:00,
2013-02-06 12:11:00,75.0,65.0,30.08,ESE,113,2.0,6.0,71,0.00,,,0.00,,2013-02-06 17:11:00,
2013-02-06 12:22:00,75.0,65.0,30.08,ESE,113,2.0,6.0,71,0.00,,,0.00,,2013-02-06 17:22:00,
2013-02-06 12:32:00,76.0,66.0,30.07,ESE,123,2.0,7.0,71,0.00,,,0.00,,2013-02-06 17:32:00,
2013-02-06 12:42:00,76.0,65.0,30.06,SE,145,2.0,7.0,68,0.00,,,0.00,,2013-02-06 17:42:00,
2013-02-06 12:52:00,76.0,65.0,30.06,SE,145,2.0,7.0,68,0.00,,,0.00,,2013-02-06 17:52:00,
2013-02-06 13:01:00,76.0,64.0,30.06,SE,134,4.0,10.0,67,0.00,,,0.00,,2013-02-06 18:01:00,
2013-02-06 13:11:00,77.0,66.0,30.05,SE,134,2.0,9.0,68,0.00,,,0.00,,2013-02-06 18:11:00,
2013-02-06 13:23:00,77.0,66.0,30.05,SE,134,2.0,9.0,68,0.00,,,0.00,,2013-02-06 18:23:00,
2013-02-06 13:32:00,76.0,65.0,30.04,ESE,123,2.0,9.0,68,0.00,,,0.00,,2013-02-06 18:32:00,
2013-02-06 13:42:00,76.0,65.0,30.04,ESE,123,2.0,9.0,68,0.00,,,0.00,,2013-02-06 18:42:00,
2013-02-06 13:52:00,77.0,66.0,30.04,East,95,2.0,7.0,69,0.00,,,0.00,,2013-02-06 18:52:00,
2013-02-06 14:01:00,76.0,65.0,30.04,SSE,152,2.0,8.0,69,0.00,,,0.00,,2013-02-06 19:01:00,
2013-02-06 14:11:00,76.0,65.0,30.04,SSE,152,2.0,8.0,69,0.00,,,0.00,,2013-02-06 19:11:00,
2013-02-06 14:21:00,76.0,65.0,30.04,ESE,103,1.0,7.0,69,0.00,,,0.00,,2013-02-06 19:21:00,
2013-02-06 14:32:00,77.0,66.0,30.04,SSE,159,0.0,6.0,69,0.00,,,0.00,,2013-02-06 19:32:00,
2013-02-06 14:42:00,77.0,66.0,30.04,SSE,159,0.0,6.0,69,0.00,,,0.00,,2013-02-06 19:42:00,
2013-02-06 14:52:00,76.0,65.0,30.04,SE,136,4.0,9.0,68,0.00,,,0.00,,2013-02-06 19:52:00,
2013-02-06 15:01:00,77.0,66.0,30.04,ESE,118,0.0,7.0,68,0.00,,,0.00,,2013-02-06 20:01:00,
2013-02-06 15:11:00,77.0,66.0,30.03,SE,125,1.0,5.0,68,0.00,,,0.00,,2013-02-06 20:11:00,
2013-02-06 15:21:00,77.0,66.0,30.03,SE,125,1.0,5.0,68,0.00,,,0.00,,2013-02-06 20:21:00,
2013-02-06 15:32:00,77.0,65.0,30.03,South,179,1.0,6.0,67,0.00,,,0.00,,2013-02-06 20:32:00,
2013-02-06 15:42:00,77.0,65.0,30.03,South,179,1.0,6.0,67,0.00,,,0.00,,2013-02-06 20:42:00,
2013-02-06 15:52:00,77.0,65.0,30.03,SE,130,3.0,8.0,67,0.00,,,0.00,,2013-02-06 20:52:00,
2013-02-06 16:02:00,76.0,65.0,30.03,ESE,119,2.0,7.0,70,0.00,,,0.00,,2013-02-06 21:02:00,
2013-02-06 16:11:00,76.0,65.0,30.03,ESE,119,2.0,7.0,70,0.00,,,0.00,,2013-02-06 21:11:00,
2013-02-06 16:21:00,76.0,66.0,30.03,ESE,103,3.0,9.0,71,0.00,,,0.00,,2013-02-06 21:21:00,
2013-02-06 16:32:00,75.0,65.0,30.03,ESE,117,1.0,6.0,70,0.00,,,0.00,,2013-02-06 21:32:00,
2013-02-06 16:42:00,75.0,65.0,30.03,ESE,117,1.0,6.0,70,0.00,,,0.00,,2013-02-06 21:42:00,
2013-02-06 16:52:00,75.0,65.0,30.03,ESE,119,1.0,5.0,70,0.00,,,0.00,,2013-02-06 21:52:00,
2013-02-06 17:01:00,75.0,64.0,30.03,ESE,103,1.0,5.0,69,0.00,,,0.00,,2013-02-06 22:01:00,
2013-02-06 17:11:00,75.0,64.0,30.03,ESE,103,1.0,5.0,69,0.00,,,0.00,,2013-02-06 22:11:00,
2013-02-06 17:21:00,75.0,65.0,30.03,East,92,3.0,7.0,70,0.00,,,0.00,,2013-02-06 22:21:00,
2013-02-06 17:31:00,75.0,65.0,30.03,SSE,147,3.0,9.0,71,0.00,,,0.00,,2013-02-06 22:31:00,
2013-02-06 17:42:00,75.0,65.0,30.03,SSE,147,3.0,9.0,71,0.00,,,0.00,,2013-02-06 22:42:00,
2013-02-06 17:52:00,74.0,64.0,30.03,SE,139,1.0,5.0,72,0.00,,,0.00,,2013-02-06 22:52:00,
2013-02-06 18:01:00,74.0,65.0,30.03,ESE,121,1.0,9.0,73,0.00,,,0.00,,2013-02-06 23:01:00,
2013-02-06 18:11:00,74.0,65.0,30.03,ESE,121,1.0,9.0,73,0.00,,,0.00,,2013-02-06 23:11:00,
2013-02-06 18:21:00,74.0,65.0,30.03,SE,124,3.0,9.0,74,0.00,,,0.00,,2013-02-06 23:21:00,
2013-02-06 18:32:00,73.0,65.0,30.03,ESE,114,0.0,3.0,75,0.02,,,0.02,,2013-02-06 23:32:00,
2013-02-06 18:42:00,73.0,65.0,30.03,ESE,114,0.0,3.0,75,0.02,,,0.02,,2013-02-06 23:42:00,
2013-02-06 18:52:00,72.0,63.0,30.03,SE,134,2.0,9.0,74,0.02,,,0.02,,2013-02-06 23:52:00,
2013-02-06 19:01:00,72.0,62.0,30.04,ESE,113,0.0,8.0,72,0.02,,,0.02,,2013-02-07 00:01:00,
2013-02-06 19:11:00,72.0,62.0,30.04,ESE,113,0.0,8.0,72,0.02,,,0.02,,2013-02-07 00:11:00,
2013-02-06 19:21:00,72.0,62.0,30.04,ENE,65,0.0,7.0,71,0.02,,,0.02,,2013-02-07 00:21:00,
2013-02-06 19:32:00,73.0,63.0,30.05,ESE,123,0.0,8.0,71,0.00,,,0.02,,2013-02-07 00:32:00,
2013-02-06 19:42:00,73.0,63.0,30.05,ESE,123,0.0,8.0,71,0.00,,,0.02,,2013-02-07 00:42:00,
2013-02-06 19:52:00,73.0,63.0,30.05,East,94,0.0,3.0,70,0.00,,,0.02,,2013-02-07 00:52:00,
2013-02-06 20:01:00,73.0,63.0,30.05,ESE,123,0.0,4.0,70,0.00,,,0.02,,2013-02-07 01:01:00,
2013-02-06 20:11:00,73.0,63.0,30.05,ESE,123,0.0,4.0,70,0.00,,,0.02,,2013-02-07 01:11:00,
2013-02-06 20:21:00,73.0,63.0,30.05,ESE,110,1.0,4.0,70,0.00,,,0.02,,2013-02-07 01:21:00,
2013-02-06 20:32:00,73.0,63.0,30.06,ESE,103,1.0,5.0,71,0.00,,,0.02,,2013-02-07 01:32:00,
2013-02-06 20:42:00,73.0,63.0,30.06,ESE,103,1.0,5.0,71,0.00,,,0.02,,2013-02-07 01:42:00,
2013-02-06 20:52:00,73.0,63.0,30.06,SE,138,1.0,5.0,72,0.00,,,0.02,,2013-02-07 01:52:00,
2013-02-06 21:01:00,72.0,62.0,30.06,ESE,119,0.0,8.0,72,0.00,,,0.02,,2013-02-07 02:01:00,
2013-02-06 21:11:00,72.0,62.0,30.06,ESE,119,0.0,8.0,72,0.00,,,0.02,,2013-02-07 02:11:00,
2013-02-06 21:21:00,73.0,63.0,30.06,SSE,150,1.0,8.0,72,0.00,,,0.02,,2013-02-07 02:21:00,
2013-02-06 21:32:00,72.0,62.0,30.06,ESE,113,2.0,7.0,72,0.00,,,0.02,,2013-02-07 02:32:00,
2013-02-06 21:42:00,72.0,62.0,30.06,ESE,113,2.0,7.0,72,0.00,,,0.02,,2013-02-07 02:42:00,
2013-02-06 21:52:00,72.0,62.0,30.06,ESE,113,2.0,7.0,72,0.00,,,0.02,,2013-02-07 02:52:00,
2013-02-06 22:02:00,72.0,63.0,30.06,ESE,107,0.0,8.0,73,0.00,,,0.02,,2013-02-07 03:02:00,
2013-02-06 22:11:00,72.0,63.0,30.06,ESE,117,1.0,7.0,73,0.00,,,0.02,,2013-02-07 03:11:00,
2013-02-06 22:21:00,72.0,63.0,30.06,ESE,117,1.0,7.0,73,0.00,,,0.02,,2013-02-07 03:21:00,
2013-02-06 22:31:00,72.0,63.0,30.06,ESE,120,1.0,10.0,74,0.00,,,0.02,,2013-02-07 03:31:00,
2013-02-06 22:42:00,72.0,63.0,30.06,ESE,120,1.0,10.0,74,0.00,,,0.02,,2013-02-07 03:42:00,
2013-02-06 22:52:00,72.0,63.0,30.06,SE,145,1.0,7.0,73,0.00,,,0.02,,2013-02-07 03:52:00,
2013-02-06 23:01:00,72.0,63.0,30.06,SE,145,1.0,7.0,73,0.00,,,0.02,,2013-02-07 04:01:00,
2013-02-06 23:11:00,72.0,63.0,30.06,SE,145,1.0,7.0,73,0.00,,,0.02,,2013-02-07 04:11:00,
2013-02-06 23:22:00,72.0,63.0,30.06,East,79,1.0,7.0,73,0.00,,,0.02,,2013-02-07 04:22:00,
2013-02-06 23:32:00,72.0,63.0,30.06,SE,134,1.0,6.0,74,0.00,,,0.02,,2013-02-07 04:32:00,
2013-02-06 23:42:00,72.0,63.0,30.06,SE,134,1.0,6.0,74,0.00,,,0.02,,2013-02-07 04:42:00,
2013-02-06 23:53:00,73.0,64.0,30.05,SE,138,2.0,9.0,74,0.00,,,0.02,,2013-02-07 04:53:00,